Jefferson City, MO

10:55 PM CDT on April 24, 2017 (GMT -0500)
Jefferson City Memorial

Weather History for KJEF - April, 2013

Change the Weather History Date:

Monday, April 29, 2013

  Actual Average Record
Temperature  
Mean Temperature 65 °F -  
Max Temperature 84 °F 72 °F 90 °F (1962)
Min Temperature 46 °F 46 °F 30 °F (1961)
Growing Degree Days 15 (Base 50)    
Moisture  
Dew Point 54 °F    
Average Humidity 64    
Maximum Humidity 93    
Minimum Humidity 36    
Precipitation  
Precipitation 0.00 in - - ()
Sea Level Pressure  
Sea Level Pressure 29.78 in    
Wind  
Wind Speed 7 mph (SSE)    
Max Wind Speed 14 mph    
Max Gust Speed 21 mph    
Visibility 10 miles    
Events      
Averages and records for this station are not official NWS values.
T = Trace of Precipitation, MM = Missing Value Source: NWS Daily Summary

Daily Weather History Graph

Daily Weather History Graph

Search for Another Location

Airport or City:

Trip Planner

Search our weather history database for the weather conditions in past years. The results will help you decide how hot, cold, wet, or windy it might be!

Date:

Astronomy

Apr. 29, 2013 Rise Set
Actual Time 6:13 AM CDT 7:58 PM CDT
Civil Twilight 5:45 AM CDT 8:27 PM CDT
Nautical Twilight 5:10 AM CDT 9:02 PM CDT
Astronomical Twilight 4:33 AM CDT 9:39 PM CDT
Moon No Moon Rise 9:35 AM CDT (4/29)
Length of Visible Light 14h 42m
Length of Day
13h 45m
Waning Gibbous, 80% of the Moon is Illuminated
Apr 29
Waning Gibbous
May 2
Last Quarter
May 9
New
May 17
First Quarter
May 24
Full

Hourly Weather History & Observations

Time (CDT) Temp. Heat Index Dew Point Humidity Pressure Visibility Wind Dir Wind Speed Gust Speed Precip Events Conditions
12:53 AM 54.0 °F - 48.0 °F 80% 29.86 in 10.0 mi ESE 8.1 mph - N/A   Clear
1:53 AM 50.0 °F - 46.9 °F 89% 29.85 in 10.0 mi East 3.5 mph - N/A   Clear
2:53 AM 48.9 °F - 46.9 °F 93% 29.85 in 10.0 mi SE 5.8 mph - N/A   Clear
3:53 AM 46.9 °F - 45.0 °F 93% 29.85 in 10.0 mi SE 5.8 mph - N/A   Clear
4:53 AM 46.9 °F - 45.0 °F 93% 29.85 in 10.0 mi SE 6.9 mph - N/A   Clear
5:53 AM 48.0 °F - 46.0 °F 93% 29.85 in 10.0 mi ESE 5.8 mph - N/A   Clear
6:53 AM 46.9 °F - 45.0 °F 93% 29.86 in 10.0 mi SE 6.9 mph - N/A   Clear
7:53 AM 52.0 °F - 48.9 °F 89% 29.87 in 10.0 mi ESE 5.8 mph - N/A   Clear
8:53 AM 57.0 °F - 51.1 °F 81% 29.86 in 10.0 mi ESE 4.6 mph - N/A   Clear
9:53 AM 66.9 °F - 55.0 °F 66% 29.84 in 10.0 mi Calm Calm - N/A   Clear
10:53 AM 73.9 °F - 57.9 °F 57% 29.82 in 10.0 mi SW 9.2 mph - N/A   Clear
11:53 AM 78.1 °F - 59.0 °F 52% 29.80 in 10.0 mi SSE 5.8 mph - N/A   Clear
12:53 PM 80.1 °F 80.6 °F 57.9 °F 47% 29.76 in 10.0 mi SE 11.5 mph - N/A   Clear
1:53 PM 82.9 °F 82.8 °F 59.0 °F 44% 29.74 in 10.0 mi South 10.4 mph 17.3 mph N/A   Clear
2:53 PM 84.0 °F 83.8 °F 59.0 °F 43% 29.71 in 10.0 mi South 6.9 mph - N/A   Clear
3:53 PM 84.0 °F 83.0 °F 55.9 °F 38% 29.69 in 10.0 mi South 10.4 mph 19.6 mph N/A   Clear
4:53 PM 84.9 °F 83.6 °F 55.0 °F 36% 29.68 in 10.0 mi SSE 13.8 mph 20.7 mph N/A   Clear
5:53 PM 84.0 °F 83.3 °F 57.0 °F 40% 29.68 in 10.0 mi South 13.8 mph - N/A   Clear
6:53 PM 82.9 °F 82.4 °F 57.0 °F 41% 29.68 in 10.0 mi South 10.4 mph - N/A   Clear
7:53 PM 80.1 °F 80.4 °F 57.0 °F 45% 29.68 in 10.0 mi SSE 10.4 mph - N/A   Clear
8:53 PM 78.1 °F - 57.9 °F 50% 29.70 in 10.0 mi SSE 10.4 mph - N/A   Clear
9:53 PM 75.0 °F - 57.9 °F 55% 29.72 in 10.0 mi SE 9.2 mph - N/A   Clear
10:53 PM 73.9 °F - 57.9 °F 57% 29.72 in 10.0 mi SSE 10.4 mph - N/A   Clear
11:53 PM 72.0 °F - 59.0 °F 64% 29.72 in 10.0 mi SSE 9.2 mph - N/A   Clear